CZ-8A R/B, 65052

Orbit data source: Space-Track

CZ-8A R/B, 65052 is space debris in LEO originally from a launch on Wed, 30 Jul 2025 UTC launched from the Wenchang Satellite Launch Center (WSC). Debris objects in space refer to the collection of defunct objects orbiting the Earth. Examples of debris include non-operational satellites, rocket bodies, and fragments generated from explosions, collisions, or faulty payload assembly.

Loading next visibility...
Identifier
65052, 2025-162K
Orbit
LEO
Country
Flag of CNCN / PRC
Related business
Manufacturer
CALT
Mission
Spacecraft
Bus & Motor
CZ-8A STAGE 2, Unknown motor
Mass
~2,800 kg wet, ~2,800 kg dry
Launch date (UTC)
2025-07-30 (11 months ago)
Launch vehicle
Unknown
Launch site
Wenchang Satellite Launch Center (WSC)
Object type
Payload
Rocket body
Debris
Shape & HBR
Cyl, 8.0 m
Radar Cross Section
36.967 m², Large (>1 m²)

Expand to show TLE details & history
Last TLE update: 18 hours ago

TLE from 18 hours ago
0 CZ-8A R/B
1 65052U 25162K   26171.10864339 -.00000011  00000-0  54696-4 0  9992
2 65052  50.0025  72.3086 0118070 148.5278 212.2771 14.30724882 46506
Epoch: 2026-06-20T02:36Z
TLE epoch observation values (Epoch: 2026-06-20T02:36:26.788Z)
Latitude
-0.00004°
Longitude
124.86895°
Altitude
861.667 km
Speed
7.386 km/s
True Right ascension
04h 49m 14s
True Declination
0° 00' 00"
Sunlit
Object was in daylight at epoch
Visualization orbit readout
Latitude
Unknown
Longitude
Unknown
Altitude
Unknown
Speed
Unknown
Apparent Right ascension
Unknown
Apparent Declination
Unknown
Sunlit
N/A
Visualization observer readout
Local Sidereal Time
07:19:21
Azimuth
Unknown
Elevation
Unknown
Doppler factor
Unknown
Orbital elements
Apogee altitude
874.684 km
Perigee altitude
705.414 km
Semi-major axis
7,168.186 km
Eccentricity
0.01181
Inclination
50.0025°
RAAN
72.3086°
Arg. of periapsis
148.5278°
True anomaly
211.56351°
Mean anomaly
212.2771°
Eccentric anomaly
211.91942°
Mean motion
3.57626 °/min
Orbital period
100.66 mins
BSTAR
0.000054696
Loading maneuver chart data...
Computing Atmospheric mass density...
Loading historical data...
Loading historical data...
Loading historical data...
Loading historical data...
Loading historical data...
Loading historical data...
Loading historical data...

Documentation

Showing up to 5 results
|